Location: ??????????
(42.1626°N, 44.1160°E)
Time: 16:38:55
(UTC+00:00)

Resurs 01 Rocket - Visible Passes

Search period start: 22 June 2021 00:00
Search period end: 02 July 2021 00:00
Orbit: 633 x 645 km, 97.9° (Epoch: 21 June)

Date Brightness Start Highest point End Pass type
(mag) Time Alt. Az. Time Alt. Az. Time Alt. Az.
22 Jun 3.5 18:32:27 10° SSW 18:36:03 24° W 18:39:40 10° NW visible
23 Jun 1.9 17:18:20 10° SSE 17:22:37 54° ENE 17:26:55 10° N visible
23 Jun 4.2 18:57:05 10° WSW 18:59:26 14° W 19:01:47 10° WNW visible
24 Jun 1.7 17:41:19 10° SSE 17:45:43 85° WSW 17:50:09 10° NNW visible
25 Jun 2.5 18:04:41 10° S 18:08:55 47° W 18:13:11 10° NNW visible
26 Jun 3.4 18:28:29 10° SSW 18:32:12 27° W 18:35:57 10° NW visible
27 Jun 2.0 17:14:34 10° SSE 17:18:48 49° ENE 17:23:03 10° N visible
27 Jun 4.1 18:52:55 10° SW 18:55:33 16° W 18:58:12 10° NW visible
28 Jun 1.6 17:37:30 10° SSE 17:41:54 87° ENE 17:46:20 10° NNW visible
29 Jun 2.3 18:00:48 10° S 18:05:05 52° W 18:09:25 10° NNW visible
30 Jun 3.3 18:24:31 10° SSW 18:28:21 29° W 18:32:13 10° NW visible
01 Jul 2.1 17:10:48 10° SE 17:14:59 44° ENE 17:19:11 10° N visible
01 Jul 4.0 18:48:49 10° SW 18:51:41 17° W 18:54:36 10° NW visible
